Regional Weather Roundup
Issued by NWS

Home | Current Version | Previous Version | Text Only | Print | Product List | Glossary On
Versions: 1 2 3 4 5 6 7 8 9 10 11 12 13 14 15 16 17 18 19 20 21 22 23 24 25 26 27 28 29 30 31 32 33 34 35 36 37 38 39 40 41 42 43 44 45 46 47 48 49 50
000
ASUS43 KLMK 242010
RWRKY
KENTUCKY REGIONAL WEATHER ROUNDUP
NATIONAL WEATHER SERVICE LOUISVILLE KY
400 PM EDT SUN JUL 24 2016

NOTE "FAIR" INDICATES FEW OR NO CLOUDS BELOW 12,000 FEET
WITH NO SIGNIFICANT WEATHER AND/OR OBSTRUCTIONS TO VISIBILITY.

KYZ001>023-026-027-061>063-070>075-242100-
WESTERN AND SOUTH CENTRAL KENTUCKY

CITY           SKY/WX    TMP DP  RH WIND       PRES   REMARKS
PADUCAH        MOSUNNY   90  76  63 S5        29.96F HX 101
HENDERSON      PTSUNNY   93  77  59 CALM      29.96S HX 107
OWENSBORO      MOSUNNY   94  79  61 SW8       29.98F HX 111
HOPKINSVILLE   SUNNY     91  74  57 VRB5      29.98F HX 100
BOWLING GREEN  PTSUNNY   91  73  55 SW7       30.00F HX  99
GLASGOW        MOSUNNY   91  72  53 W7        30.01S HX  98
$$

KYZ024-025-028>034-038-045-046-053-242100-
NORTH CENTRAL KENTUCKY

CITY           SKY/WX    TMP DP  RH WIND       PRES   REMARKS
LOUISVILLE/SDF PTSUNNY   94  73  50 SW9       29.98F HX 103
LOUISVILLE/LOU MOSUNNY   93  73  52 SW7       29.98F HX 102
FORT KNOX      SUNNY     91  76  60 SW7       29.98F HAZE    HX 102
$$

KYZ035>037-039>044-047>052-055>060-089>105-242100-
NORTHEAST KENTUCKY

CITY           SKY/WX    TMP DP  RH WIND       PRES   REMARKS
LEXINGTON      PTSUNNY   94  73  50 SW9       30.02F HX 103
COVINGTON      MOSUNNY   91  74  57 SW6       30.00F HX 100
FRANKFORT      SUNNY     93  72  50 SW10      30.00F HX 101
$$

KYZ054-064>069-076>088-106>120-242100-
SOUTHEAST KENTUCKY

CITY           SKY/WX    TMP DP  RH WIND       PRES   REMARKS
JACKSON        MOSUNNY   91  74  57 CALM      30.04F HX 100
LONDON         PTSUNNY   91  68  46 W5        30.04F HX  95
SOMERSET       MOSUNNY   88  72  58 W6        30.04F HX  94
MIDDLESBORO    MOSUNNY   93  72  51 SE5       30.04F HX 100
MONTICELLO     PTCLDY   N/A N/A N/A W12G18    30.05F
$$





USA.gov is the U.S. government's official web portal to all federal, state and local government web resources and services.